ICEYE-X39

导读 | 星芒AI

ICEYE-X39 是 ICEYE 公司发射的一颗合成孔径雷达(SAR)成像卫星,具备高分辨率和全天候成像能力。该卫星采用小型卫星平台,支持对地观测和监测,广泛应用于灾害监测、环境管理、安全与防务等领域。作为 ICEYE 卫星星座的一部分,ICEYE-X39 提升了全球 SAR 数据获取的频率和覆盖能力,为用户提供快速、可靠的地球观测服务。

基本信息
目录编号:
60546
目录名称:
ICEYE-X39
国际标识:
2024-149CG
轨道中心:
EARTH
卫星名称:
ICEYE-X39
卫星全名:
ICEYE-X39
卫星状态:
在轨 (已飞行486 天)
发射日期:
2024-08-16 UTC
国别 :
(FI)
星等 :
--
轨道信息
数据来源 国际轨道数据
星历时间: 2025-12-15T01:39:07+0800
1天前
查看轨道信息
半长轴: 6949.807km
偏心率: 0.0003908
轨道倾角: 97.697°
近地点辐角 343.258°
升交点赤经 63.237°
平近点角 16.851°
近地点: 568.956km
远地点: 574.388km
周期: 96.099分钟
每日圈数: 14.984548
详细信息
使用方式:
暂无
2D轨道图
3D轨道图
轨道高度分析图
轨道倾角分析图
轨道综合分析图
查看轨道综合分析图